www.pogodaiklimat.ru

Погода и климат >> Архив погоды >> Россия >> Якутия >> Сухана


ПОГОДА в Сухане

  • Прогноз погоды в Сухане
  • Монитор погоды в Сухане
  • Климат города

АРХИВ ПОГОДЫ в Сухане

Время (UTC), дата Ветер
(напр.,м/с)
 
Видим.   Явления Облачность Т
(С)
Тd
(С)
f
(%)
Тe
(С)
Тes
(С)
Комфортность P
(гПа)
Po
(гПа)
Тmin
(С)
Tmax
(С)
R
(мм)
R24
(мм)
S
(см)
15 17.06 50 км н/о +3.9 -2.7 62 +2 +2 1015.3 1005.7
18 17.06 С 1 50 км 3/3 600 м
[Sc]
+3.6 -2.4 65 +3 +3 1017.4 1007.8
21 17.06 штиль 0 50 км ясно +4.5 -1.2 66 +4 +6 1019.3 1009.7
00 18.06 Ю 1 50 км ясно +7.5 -1.4 53 +7 +14 1019.8 1013.0 +3.1
03 18.06 З 3 50 км 1/1 600 м
[Cu hum]
+11.3 -0.9 43 +10 +18 1018.8 1009.4
06 18.06 З 3 50 км 1/1 600 м
[Cu hum]
+15.2 +2.1 41 +15 +22 1017.1 1007.9
09 18.06 ЮЗ 2 50 км 4/1 600 м
[Cu hum Ci sp]
+16.8 +2.5 38 +17 +21 1015.4 1006.3
12 18.06 З 1 50 км 8/0
[Ac trans Ci sp]
+15.6 +3.4 44 +12 +12 1013.9 1004.7 +17.0
15 18.06 З 1 50 км 8/3 1000 м
[Sc Ac As Ci fib]
+12.7 +3.8 55 +13 +13 1012.3 1003.1
18 18.06 ЮЗ 2 50 км 8/8 1000 м
[Sc]
+11.0 +2.7 57 +10 +10 1010.8 1001.4
21 18.06 Ю 1 50 км 9/9 1000 м
[Sc]
+11.9 +2.7 53 +12 +12 1008.8 999.5
00 19.06 штиль 0 20 км слабый ливневой дождь 10/10 600 м
[Cb cap]
+12.9 +5.0 59 +13 +13 1007.7 998.6 +11.0 0.3
03 19.06 З 2 50 км {ливн. осадки} 8/8 600 м
[Sc]
+13.6 +5.3 57 +13 +15 1007.2 998.1
06 19.06 СЗ 2 50 км {ливн. осадки} 9/9 1000 м
[Sc]
+17.2 +7.3 52 +18 +19 1007.1 998.1
09 19.06 СЗ 2 50 км 8/8 1000 м
[Sc]
+18.6 +5.0 41 +19 +20 1006.8 997.8
12 19.06 С 1 50 км 10/6 1000 м
[Cb cap As op]
+17.8 +5.0 43 +19 +19 1007.2 998.2 +19.2 0.0
15 19.06 штиль 0 50 км 9/5 1000 м
[Sc As trans Ci fib]
+13.0 +5.6 61 +13 +13 1006.5 997.4
18 19.06 штиль 0 50 км 8/5 1000 м
[Sc Ci fib]
+6.9 +4.9 87 +6 +6 1006.2 996.9
21 19.06 штиль 0 50 км 9/9 1000 м
[Sc]
+8.0 +6.1 88 +7 +7 1005.8 996.5
00 20.06 штиль 0 50 км 9/9 1000 м
[Sc]
+11.9 +7.1 72 +11 +12 1005.0 995.9 +6.0
03 20.06 штиль 0 50 км 10/10 600 м
[Cu Sc]
+16.5 +7.8 56 +16 +16 1004.4 995.4
06 20.06 штиль 0 50 км 10/6 600 м
[Cu Sc As op]
+18.2 +8.1 52 +18 +19 1004.4 995.4
09 20.06 СЗ 2 50 км 6/6 600 м
[Cu Sc]
+19.8 +5.9 40 +21 +23 комфорт 1004.7 995.7
12 20.06 штиль 0 50 км 6/3 1000 м
[Sc Ci fib]
+19.8 +6.5 42 +20 +21 1005.1 996.1 +20.0
15 20.06 СЗ 1 50 км 9/3 1000 м
[Sc Ac cast Ci fib]
+14.0 +8.0 67 +14 +14 1005.2 996.1
18 20.06 Ю 1 50 км 9/9 1000 м
[Sc]
+15.8 +5.9 52 +17 +17 1005.3 996.2
21 20.06 Ю 4 50 км 10/10 600 м
[Sc]
+15.0 +6.8 58 +14 +14 1005.2 996.1
00 21.06 Ю 3 50 км 9/9 600 м
[Cb cap]
+16.6 +9.3 62 +16 +17 1003.5 994.5 +12.8
03 21.06 Ю 4 50 км 8/3 600 м
[Cu Sc Ac cast Ci sp]
+21.6 +14.0 62 +24 +28 комфорт 1000.7 991.9
06 21.06 Ю 2 50 км гроза без осадков 8/6 600 м
[Cb cap Ci fib]
+21.8 +15.7 68 +25 +29 комфорт 999.5 990.7
09 21.06 Ю 4 50 км {гроза} 8/1 600 м
[Cu med, cong As trans Ci fib]
+27.6 +15.0 46 +30 +32 жарко 997.2 988.6
12 21.06 З 1
{11}
20 км гроза, ливневой дождь 10/10 600 м
[Cb cap]
+17.5 +15.3 87 +19 +19 1000.5 991.5 +28.4 3
15 21.06 СВ 1 50 км {гроза, ливн. осадки} 4/3 600 м
[Cb cap Ac As]
+15.6 +15.1 97 +16 +16 998.9 989.9
18 21.06 штиль 0 4000 м дымка {гроза, ливн. осадки} 3/0
[Ac trans]
+13.7 +13.7 100 +13 +13 1000.1 991.0
21 21.06 штиль 0 500 м туман 6/0
[Ac trans Ci fib]
+13.6 +13.6 100 +13 +15 1000.1 991.0
00 22.06 штиль 0 50 км {туман} 6/0
[Ac trans Ci fib]
+18.0 +15.6 86 +18 +24 999.9 990.9 +13.4 1
03 22.06 В 1 50 км 8/5 600 м
[Cu hum Ac trans]
+23.9 +15.9 61 +27 +31 жарко 999.0 990.2
06 22.06 Ю 2 50 км 10/10 600 м
[Cu Sc]
+26.2 +15.1 50 +29 +29 жарко 996.5 987.9
09 22.06 Ю 1 50 км осадки на расстоянии 10/10 600 м
[Cb cap]
+27.0 +14.1 45 +29 +29 жарко 995.1 986.5
12 22.06 штиль 0 50 км осадки на расстоянии {гроза, ливн. осадки} 10/10 600 м
[Cb cap]
+19.5 +17.9 90 +22 +22 комфорт 995.1 986.2 +27.8 3
15 22.06 штиль 0 50 км осадки на расстоянии 10/10 600 м
[Cb cap]
+17.6 +17.1 97 +18 +18 994.7 985.8
18 22.06 штиль 0 500 м туман {ливн. осадки} ?/? +16.6 +16.6 100 +16 +16 993.6 984.7
21 22.06 штиль 0 500 м туман {ливн. осадки} ?/? +16.7 +16.7 100 +17 +17 993.2 984.3
00 23.06 штиль 0 20 км слабый ливневой дождь {туман} 10/10 300 м
[Cb cap]
+18.4 +17.9 97 +19 +19 993.9 985.0 +16.5 5
03 23.06 С 1 4000 м слабый ливневой снег 10/10 300 м
[Cb cap]
+14.5 +13.6 94 +15 +15 994.1 985.1
06 23.06 С 3 20 км слабый ливневой дождь 10/10 300 м
[Cb cap]
+8.8 +8.0 95 +6 +6 998.7 989.5
09 23.06 С 3 50 км {ливн. осадки} 10/10 300 м
[Cb cap]
+6.0 +3.6 85 +3 +3 1004.4 994.9
12 23.06 С 4 50 км {ливн. осадки} 10/10 600 м
[Cb cap]
+6.5 +3.2 79 +3 +3 1008.1 998.6 +18.4 17
15 23.06 С 2 50 км 10/10 600 м
[Sc]
+5.7 +2.0 77 +3 +3 1011.0 1001.4
18 23.06 С 1 50 км 1/1 600 м
[Sc]
+4.4 +1.1 79 +3 +3 1012.6 1003.0
21 23.06 С 2 50 км ясно +6.0 +1.2 71 +4 +6 1015.3 1005.7
00 24.06 С 1 50 км ясно +8.9 +0.9 57 +9 +16 1016.3 1006.9 +4.0
03 24.06 В 3 50 км ясно +12.6 0.0 42 +12 +20 1015.8 1006.6
06 24.06 Ю 1 50 км ясно +15.2 -0.5 34 +16 +28 опасность
простуды
1014.5 1005.7
09 24.06 Ю 2 50 км ясно +17.6 -0.2 30 +18 +23 1014.2 1005.1
12 24.06 штиль 0 50 км 3/0
[Ci fib]
+18.2 +2.5 35 +18 +20 1013.7 1004.6 +18.2

 

Местоположение метеостанции Сухана (Якутия, Россия): широта 68.62 долгота 118.30 высота над уровнем моря 77 м.

В архиве по умолчанию представлена погода в Сухане за последнюю неделю. Архивные данные за месяц целиком и за предыдущие месяцы, начиная с января 2011 года, Вы можете получить, выбрав интересующий диапазон дат из раскрывающегося списка и нажав кнопку "Ввод!".

Внимание! Время в таблицах - всемирное. Для получения местного времени необходимо прибавить поправку, которая в Сухане равна 9 ч.

Смотрите также архив погоды в соседних городах и на ближайших метеорологических станциях:

Погода в Джарджане (Якутия, Россия) (231 км)
Погода в Оленеке (Якутия, Россия) (240 км)
Погода в Джалинде (Якутия, Россия) (241 км)
Погода в Эйке (Якутия, Россия) (291 км)
Погода в Жиганске (Якутия, Россия) (294 км)
Погода в Шелагонцах (Якутия, Россия) (316 км)
Погода в Полярном (Якутия, Россия) (326 км)
Погода в Саскылахе (Якутия, Россия) (406 км)
Погода в Тюмяти (Якутия, Россия) (415 км)
Погода в Кюсюре (Якутия, Россия) (419 км)

Пояснения к столбцам:

Ветер - указаны скорость ветра в м/с - средняя за 10 мин, порывы в срок и между сроками (в фигурных скобках) и направление, откуда дует ветер: С - северный, СВ - северо-восточный, В - восточный, ЮВ - юго-восточный, Ю - южный, ЮЗ - юго-западный, З - западный, СЗ - северо-западный.
Видимость - горизонтальная дальность видимости в метрах или километрах. При видимости от 1 до 10 км при отсутствии осадков обычно наблюдается дымка, при ухудшении видимости до 1 км и менее - туман. В сухую погоду видимость может ухудшаться дымом, пылью или мглою.
Явления - указаны атмосферные явления, наблюдавшиеся в срок или в последний час перед сроком; фигурными скобками обозначены явления, наблюдавшиеся между сроками (за 1-3 часа до срока); квадратными скобками обозначены град или гололедные отложения с указанием их диаметра в мм.
Облачность - указаны через наклонную черту общая и нижняя облачность в баллах и высота нижней границы облаков в метрах; квадратными скобками обозначены формы облаков: Ci - перистые, Cs - перисто-слоистые, Cc - перисто-кучевые, Ac - высококучевые, As - высокослоистые, Sc - слоисто-кучевые, Ns - слоисто-дождевые, Cu - кучевые, Cb - кучево-дождевые. Подробнее классификацию облаков см. в Атласе облаков (PDF).
T - Температура воздуха - температура, измеренная на высоте 2 м над землей.
Td - Температура точки росы - температура, при понижении до которой содержащийся в воздухе водяной пар достигнет насыщения.
f - Относительная влажность воздуха - влажноcть воздуха, измеренная на высоте 2 м над землей.
Te - Эффективная температура - температура, которую ощущает одетый по сезону человек в тени. Характеристика душности погоды. При расчете учитывается влияние влажности воздуха и скорости ветра на теплоощущения человека.
Tes - Эффективная температура на солнце - температура, которую ощущает человек, с поправкой на солнечный нагрев. Характеристика знойности погоды. Зависит от высоты солнца над горизонтом, облачности и скорости ветра. Ночью, в пасмурную погоду, а также при ветре 12 м/с и более поправка равна нулю.
P - Атмосферное давление - приведенное к уровню моря атмосферное давление.
Po - Атмосферное давление - измеренное на уровне метеостанции атмосферное давление.
Tmin - Минимальная температура - минимум температуры воздуха на высоте 2 м над землей.
Tmax - Максимальная температура - максимум температуры воздуха на высоте 2 м над землей.
R - Количество осадков - Количество выпавших осадков за период времени, мм. При наведении курсора мыши на число - период времени, за который выпало указанное количество осадков.
R24 - Количество осадков - Количество выпавших осадков за 24 часа, мм.
S - Снежный покров - Высота снежного покрова, см. При наведении курсора мыши на число - состояние снежного покрова и степень покрытия местности в баллах.